Sunday, November 19, 2017, 4:53 AM GMT
Back to Local

CYOY, Valcartier Airport

Location: , , Canada Lat: 46.9
Local Time: 4:53 AM GMT ( 4:53 GMT) Lon: -71.5
Time Zone: GMT Elev: 551 ft

Show me the last for .
Show Decoded

2017-11-19 04:00 METAR CYOY 190400Z AUTO 10007KT 070V150 9SM OVC063 M01/M07 A2945 RMK SLP983 =
2017-11-19 03:00 METAR CYOY 190300Z AUTO 11002KT 9SM OVC057 OVC091 M01/M07 A2950 RMK SLP000 =
2017-11-19 02:00 METAR CYOY 190200Z AUTO 12004KT 090V150 9SM SCT048 OVC058 M01/M07 A2954 RMK
                 SLP014 =
2017-11-19 01:00 METAR CYOY 190100Z AUTO 11003KT 070V170 9SM BKN056 M01/M07 A2957 RMK SLP026 =
2017-11-19 00:00 METAR CYOY 190000Z AUTO 11006KT 050V150 9SM FEW061 OVC072 OVC095 M01/M08 A2959
                 RMK SLP033 =
2017-11-18 23:00 METAR CYOY 182300Z AUTO 09003KT 020V140 9SM OVC082 M02/M08 A2960 RMK SLP035 =
2017-11-18 22:00 METAR CYOY 182200Z AUTO 05003KT 010V120 9SM OVC086 M03/M08 A2963 RMK SLP044 =
2017-11-18 21:00 METAR CYOY 182100Z AUTO 09003KT 070V160 9SM FEW084 SCT092 M03/M08 A2962 RMK
                 SLP042 =
2017-11-18 20:00 METAR CYOY 182000Z AUTO 05006KT 010V070 9SM FEW066 FEW072 FEW080 FEW092 M04/M09
                 A2964 RMK PRESFR SLP049 =
2017-11-18 19:00 METAR CYOY 181900Z AUTO 17006KT 130V190 9SM FEW092 M04/M09 A2972 RMK SLP077 =
2017-11-18 18:00 METAR CYOY 181800Z AUTO 12003KT 080V140 9SM CLR M04/M09 A2973 RMK SLP079 =
2017-11-18 17:00 METAR CYOY 181700Z AUTO 10004KT 050V130 9SM CLR M05/M10 A2976 RMK SLP091 =
2017-11-18 16:00 METAR CYOY 181600Z AUTO 03003KT 360V070 9SM FEW091 M06/M10 A2980 RMK ICG PAST HR
                 SLP105 =
2017-11-18 15:00 METAR CYOY 181500Z AUTO 00000KT 9SM FEW087 FEW097 M07/M11 A2985 RMK ICG SLP122 =
2017-11-18 14:00 METAR CYOY 181400Z AUTO 00000KT 9SM FEW093 M09/M11 A2987 RMK SLP128 =
2017-11-18 13:00 METAR CYOY 181300Z AUTO 00000KT 9SM FEW067 SCT077 M10/M12 A2991 RMK ICG PAST HR
                 SLP143 =
2017-11-18 12:00 METAR CYOY 181200Z AUTO 00000KT 9SM CLR M13/M14 A2993 RMK SLP148 =
2017-11-18 11:00 METAR CYOY 181100Z AUTO 35002KT 9SM FEW077 FEW084 M12/M14 A2992 RMK SLP146 =
2017-11-18 10:00 METAR CYOY 181000Z AUTO 00000KT 9SM CLR M11/M12 A2991 RMK SLP143 =
2017-11-18 09:00 METAR CYOY 180900Z AUTO 00000KT 9SM CLR M12/M14 A2991 RMK SLP141 =
2017-11-18 08:00 METAR CYOY 180800Z AUTO 27002KT 9SM FEW082 M09/M12 A2990 RMK SLP139 =
2017-11-18 07:00 METAR CYOY 180700Z AUTO 23006KT 210V270 9SM FEW084 M09/M12 A2991 RMK SLP142 =
2017-11-18 06:00 METAR CYOY 180600Z AUTO 25004KT 9SM FEW082 M09/M12 A2992 RMK SLP145 =
2017-11-18 05:00 METAR CYOY 180500Z AUTO 32011KT 9SM FEW077 M08/M11 A2994 RMK SLP150 =

Support USWX by starting your Amazon purchase here.